RH
15 14 12 9 6 5 5 4 5 4 4 4 3 3 3 3 3 2 2 2 2 2 2 2 2 2 2 2 2 2 2 2 2 2 2 2 2 2 2 2 2 2 2 2 2 2 2 2 2 2 2 2 2 2 2 2 2 2 2 3 2 4 4 6 49 87 84 93 90 83 94 96 97 93 89 92 88 92 88 79 67 48 57 79 90 97 100 99 96 91 88 83 78 74 67 60 55
12 9 7 6 5 5 4 4 4 4 3 3 3 3 2 2 2 2 2 2 2 2 2 2 2 2 2 3 3 3 3 2 2 2 2 2 2 2 2 2 2 2 2 2 2 2 2 2 2 2 2 2 2 2 2 3 2 3 2 3 4 1 8 2 10 37 51 74 86 83 86 89 97 101 100 91 90 100 88 80 76 63 72 89 98 99 98 102 99 98 96 90 87 81 71 64 60
7 6 5 5 4 4 4 3 4 3 3 3 2 2 2 2 2 2 2 2 2 2 2 2 2 2 3 3 3 3 3 3 3 3 3 3 2 3 2 3 2 2 2 2 2 2 2 2 2 1 2 2 2 2 1 3 2 3 2 3 5 3 5 9 27 35 24 26 31 38 51 63 76 91 98 83 87 101 87 86 85 74 86 97 95 84 80 90 96 99 96 91 89 82 73 62 57
6 5 4 4 4 3 3 3 3 3 2 2 2 2 2 2 2 2 3 3 3 3 3 3 3 3 3 3 3 3 3 3 3 3 3 3 3 3 3 3 2 2 2 2 2 2 2 2 2 2 2 2 2 2 2 2 2 2 3 3 3 8 6 13 66 94 71 52 39 39 59 73 65 66 85 85 85 87 77 82 85 85 97 99 84 65 57 66 86 98 96 93 89 80 72 64 59
6 5 4 4 3 3 3 3 3 2 2 2 2 2 3 2 3 3 3 3 3 3 3 3 3 3 3 3 3 3 3 3 3 3 3 3 3 3 3 3 3 3 3 2 2 2 2 2 2 2 2 2 2 2 2 2 3 3 2 5 8 26 33 18 47 89 101 95 87 87 93 98 85 72 79 89 84 73 74 81 88 94 98 94 80 69 58 55 78 99 98 95 89 78 72 70 69
5 4 3 3 3 3 3 2 2 2 3 2 3 3 3 3 3 3 3 3 3 3 3 3 3 3 3 3 4 3 4 3 4 4 4 4 4 4 4 4 3 3 3 3 3 3 2 3 2 3 3 2 3 2 3 2 2 4 3 4 11 43 69 47 27 42 77 96 99 100 98 101 98 85 73 79 85 82 88 92 96 98 98 95 84 76 68 59 66 78 85 87 86 81 79 83 81
4 3 3 3 3 3 2 3 3 3 3 3 3 3 3 3 3 3 3 3 3 3 3 4 4 4 4 4 4 4 4 4 4 4 4 4 4 4 4 4 4 4 4 4 3 3 3 3 3 3 3 3 4 4 3 3 2 3 4 3 5 28 59 66 52 31 37 72 97 98 98 99 86 75 67 66 80 91 97 96 97 99 98 97 89 80 72 65 58 65 86 89 90 91 89 95 94
3 3 3 3 3 3 3 3 3 3 3 3 3 3 3 3 3 3 3 4 4 4 4 4 4 4 4 4 4 4 4 4 4 4 4 4 4 4 4 4 4 4 4 5 4 4 4 3 3 3 3 4 4 5 4 4 3 3 3 4 6 12 20 40 64 54 30 40 75 90 85 79 68 73 81 79 83 90 97 97 93 91 91 94 92 83 73 67 60 70 96 99 98 99 94 97 99
3 3 3 3 3 3 4 3 3 3 3 3 3 3 3 3 3 3 3 4 4 4 4 4 4 4 4 4 4 4 4 4 4 4 5 4 5 4 4 4 4 5 4 5 5 4 5 4 4 3 3 4 4 4 5 5 4 5 3 4 18 33 29 26 42 54 52 44 48 54 50 65 82 91 94 94 91 88 93 96 92 89 92 97 92 84 77 73 69 67 80 96 101 99 97 99 99
3 3 3 3 4 4 4 4 4 4 3 3 3 3 3 3 3 3 4 4 4 4 4 4 4 4 4 4 5 5 5 5 5 5 5 5 5 5 5 5 4 5 5 5 5 5 5 5 5 5 4 4 4 4 4 5 4 5 4 3 17 45 58 54 46 47 58 61 55 48 50 78 99 100 98 97 97 93 98 100 95 94 93 92 91 91 85 82 86 74 67 84 95 92 94 98 96
3 3 3 4 4 4 4 4 4 4 4 4 4 4 4 4 4 4 4 4 4 4 4 4 4 5 5 5 5 5 5 5 6 6 6 6 5 6 5 5 5 5 5 5 5 5 5 5 5 5 6 5 5 5 5 5 5 5 5 4 6 20 46 69 74 66 57 54 64 68 65 78 90 96 96 93 98 98 100 101 97 94 88 84 89 93 86 83 94 90 78 81 90 91 93 97 95
3 3 4 4 4 4 4 4 4 4 4 4 4 4 4 4 4 4 4 4 4 4 5 5 5 5 5 5 6 6 6 6 6 6 6 6 6 6 6 6 6 5 5 5 5 5 5 5 6 5 5 6 6 6 6 5 6 6 5 6 5 7 26 62 86 89 81 71 75 83 79 81 91 97 90 88 96 98 100 101 97 96 95 91 91 92 86 82 84 84 85 86 89 92 90 91 87
4 4 4 4 4 4 4 4 4 4 4 4 4 4 4 4 4 4 4 5 5 5 5 5 5 5 5 5 6 6 6 6 6 6 6 6 7 6 7 7 6 6 6 6 5 5 6 6 6 6 6 6 6 6 6 6 6 7 7 5 5 7 15 44 76 91 95 91 84 89 96 97 99 94 84 89 98 98 100 101 98 99 101 99 98 99 95 92 86 80 82 84 85 84 81 81 80
4 4 4 4 4 4 4 4 4 4 4 4 4 4 5 5 5 5 5 5 5 5 5 6 6 5 6 6 6 6 6 7 6 6 7 6 7 7 7 7 7 7 7 6 6 6 6 6 6 6 7 6 6 6 6 6 6 6 7 8 6 6 9 22 51 75 88 90 83 85 94 96 99 96 89 94 100 99 100 100 100 101 100 100 100 99 95 97 98 92 90 90 91 89 86 87 88
5 5 4 4 5 5 4 4 4 4 4 5 5 5 5 5 5 5 5 5 5 6 6 6 6 6 6 6 6 6 6 7 7 7 7 7 7 7 7 8 8 8 7 7 7 6 6 6 7 6 7 7 7 7 7 7 7 7 6 8 8 7 7 9 23 43 58 69 74 78 83 84 88 95 97 99 101 100 100 100 99 100 99 98 98 95 93 97 100 100 100 99 99 98 96 95 91
5 5 5 5 5 5 5 5 5 5 5 5 5 5 5 5 5 5 5 6 6 6 6 6 6 6 6 7 6 7 7 7 7 7 7 7 7 7 7 7 8 8 8 8 7 7 7 7 7 7 7 7 8 8 8 8 7 8 8 7 8 8 8 7 9 18 28 41 52 61 68 73 76 84 94 98 100 100 100 101 99 97 96 94 92 89 89 94 95 97 99 100 102 100 95 89 84
5 5 5 5 5 5 5 5 5 5 5 5 5 5 5 5 5 6 6 6 6 6 6 6 6 7 7 7 7 7 7 7 7 7 7 7 7 7 7 7 8 8 8 8 8 8 7 7 7 7 7 7 7 8 8 9 9 8 9 9 9 9 9 8 8 9 16 28 40 48 54 60 63 68 78 90 98 101 100 100 98 98 94 93 95 93 92 94 93 93 94 94 93 90 86 84 84
5 5 5 5 5 5 5 5 5 5 5 5 5 5 5 5 6 6 6 6 6 6 6 7 7 7 7 7 7 7 7 7 7 7 7 7 7 7 7 7 7 8 8 8 8 8 8 8 7 7 6 6 6 8 8 8 9 9 9 10 10 10 10 10 9 8 10 19 33 48 58 61 61 64 69 79 89 95 97 95 93 95 96 96 98 98 99 99 98 98 97 93 87 84 85 88 93
6 6 6 5 5 5 5 5 5 5 5 5 5 5 5 6 6 6 6 6 7 7 7 7 7 7 7 7 6 7 6 7 7 7 7 7 7 7 7 7 7 8 8 9 9 8 8 8 8 7 7 7 7 7 8 9 9 9 9 9 10 10 10 10 10 10 10 14 23 36 52 59 57 59 62 66 75 82 89 92 91 92 95 97 97 98 100 100 99 97 95 92 89 87 87 87 87
6 6 6 6 5 5 5 5 5 5 5 5 5 5 6 6 6 6 6 7 7 7 7 7 7 7 6 7 6 6 6 7 7 7 7 7 7 7 7 7 7 8 8 9 9 8 8 8 9 8 7 7 7 7 8 9 9 9 9 9 9 10 10 10 10 11 11 12 15 20 30 39 42 49 60 72 81 84 89 93 92 91 95 98 99 98 95 91 89 86 84 83 81 79 77 75 73
6 6 6 5 5 5 5 5 5 5 5 5 5 5 6 6 6 7 7 7 7 7 7 7 6 6 6 6 6 6 6 6 6 6 7 7 7 6 6 6 7 7 8 9 10 9 8 9 9 9 9 7 7 8 8 8 9 9 9 9 9 9 9 10 10 10 11 11 12 13 15 20 25 31 42 55 64 68 73 74 71 76 88 94 94 88 80 72 67 67 69 70 68 66 65 64 64
6 6 5 5 5 5 5 5 5 5 6 5 6 6 6 6 6 7 7 7 7 6 6 6 6 6 6 6 6 6 6 6 6 6 7 6 6 6 6 6 7 7 8 10 10 9 9 9 10 10 9 8 8 8 8 9 9 10 10 10 10 10 10 10 10 10 10 11 12 13 14 15 16 16 18 21 25 29 33 36 37 44 56 64 64 61 56 50 48 51 57 60 60 58 57 57 58
6 6 6 6 5 5 5 6 6 6 6 6 6 6 6 6 7 7 7 7 6 6 6 6 6 6 6 6 6 6 6 6 6 6 7 7 6 6 6 6 7 8 9 10 10 9 9 10 11 11 10 9 9 9 9 9 10 10 10 11 11 11 11 12 13 12 12 13 14 15 17 18 20 20 19 18 18 17 17 18 20 23 28 32 33 34 35 35 39 45 52 58 58 57 56 56 57
6 6 6 6 6 6 6 6 6 6 6 6 6 6 7 7 7 7 7 7 6 6 6 6 6 6 6 6 6 6 6 6 7 7 7 7 7 7 7 7 7 8 9 10 10 9 10 12 12 12 11 11 10 10 10 10 10 10 11 11 11 12 12 13 14 14 15 16 16 16 17 18 19 20 22 23 24 24 23 22 22 23 24 25 26 27 29 32 36 39 44 52 57 60 61 61 61
6 6 6 6 7 6 7 7 6 7 7 7 7 7 7 7 7 7 7 7 7 7 6 6 6 6 6 6 6 6 6 6 6 7 7 7 7 7 7 8 8 9 10 10 10 10 11 14 14 13 13 12 12 11 11 11 10 10 11 11 12 12 12 13 14 15 16 17 17 18 18 18 18 18 19 21 22 22 23 23 23 23 23 24 25 26 28 31 33 35 38 45 53 61 65 67 67
6 6 7 7 7 7 7 7 7 7 7 7 7 7 7 7 7 7 7 7 7 7 6 6 6 6 6 6 6 6 6 7 7 7 8 8 8 8 8 8 9 9 10 11 10 11 14 16 16 15 14 14 13 13 13 12 12 11 11 11 12 13 13 14 14 15 16 17 18 20 21 21 21 22 23 22 23 24 25 26 28 29 31 33 34 34 34 35 35 37 40 44 50 55 59 63 66
6 6 7 7 8 8 8 8 7 7 7 7 7 7 7 7 7 7 7 7 7 7 6 6 6 6 6 6 6 6 6 6 7 7 8 8 8 8 8 9 9 10 10 11 11 13 17 18 17 16 15 15 15 14 14 13 13 12 12 12 12 12 13 14 14 15 16 17 19 21 23 25 27 28 30 30 30 31 33 35 37 39 41 43 45 46 46 46 46 46 46 46 47 48 50 53 55
6 6 7 8 8 8 8 8 8 8 7 7 7 7 7 7 7 7 7 7 7 7 7 6 6 6 6 6 6 6 7 7 7 8 8 9 9 9 9 9 10 11 11 11 13 17 19 19 19 18 17 16 16 15 14 13 13 13 13 12 12 13 13 14 14 15 16 17 20 23 26 28 31 33 34 34 34 36 37 38 39 40 42 43 45 48 50 53 55 56 57 56 55 54 53 53 52
6 7 7 8 8 8 8 8 8 8 8 8 8 7 7 7 7 7 7 7 7 7 7 7 6 7 6 6 6 6 7 7 8 9 9 9 9 9 9 10 10 11 11 13 16 20 20 20 19 19 19 18 16 15 14 14 13 13 13 13 13 13 14 14 15 16 16 18 20 22 26 28 30 31 33 34 34 35 35 35 35 36 37 38 39 41 43 45 48 52 55 56 57 58 58 59 58
7 7 7 7 8 8 8 9 8 8 8 8 8 7 7 8 8 7 7 7 7 7 7 7 7 7 7 7 7 7 7 8 9 10 10 10 10 10 10 10 11 11 12 16 20 22 21 21 21 21 20 19 17 16 15 14 14 14 14 14 14 14 15 15 16 17 18 18 20 21 22 24 25 26 27 28 27 26 26 25 25 25 26 26 26 27 28 29 30 32 34 35 36 38 41 45 49
8 8 7 7 8 8 8 8 8 8 8 8 8 7 7 8 8 8 8 8 8 8 7 7 7 7 7 7 7 8 9 9 10 10 11 11 10 10 10 11 11 12 15 20 24 24 24 23 23 22 21 20 18 16 15 15 14 14 14 14 14 14 15 16 17 17 18 18 19 19 20 21 21 22 22 22 21 20 19 18 18 17 16 15 15 14 14 13 13 14 14 14 15 15 17 19 23
9 9 8 8 8 8 8 9 8 8 8 8 8 7 7 8 9 8 8 8 8 8 8 7 7 7 7 7 8 9 10 11 11 11 11 11 11 11 11 12 12 13 19 25 27 26 26 26 25 24 23 20 18 16 16 16 15 15 15 14 15 15 16 16 17 17 18 18 18 19 19 19 19 19 19 18 17 16 14 13 12 11 10 9 9 8 8 9 9 9 10 11 12 12 12 13 14
9 9 9 9 8 8 9 9 9 9 9 8 8 8 7 8 9 9 8 8 8 8 7 7 7 7 8 8 9 10 11 12 12 12 12 11 11 12 12 12 12 16 23 28 30 30 29 29 28 26 24 22 19 18 17 16 16 15 15 15 16 17 17 18 18 18 18 19 20 20 19 19 18 16 14 13 11 10 9 9 8 8 8 8 8 9 9 10 11 12 13 13 13 13 14 14 16
10 9 9 9 9 9 9 9 9 9 9 8 8 8 7 8 9 9 8 8 8 7 7 7 8 8 9 9 10 11 12 13 13 12 12 12 12 12 12 13 14 18 26 31 32 32 32 31 30 28 25 23 21 19 18 18 18 17 17 17 17 18 18 18 19 19 20 20 19 18 16 14 13 11 10 9 8 8 8 8 8 8 9 9 10 11 11 12 12 12 11 10 10 9 8 9 11
12 10 9 9 10 10 10 10 10 10 9 9 8 8 8 8 9 8 8 8 7 7 7 8 9 10 11 11 12 13 13 13 13 13 12 12 13 13 13 14 17 23 31 35 35 34 34 34 32 30 27 25 23 21 20 20 20 19 19 19 19 18 18 18 18 18 18 16 14 12 11 10 9 9 9 9 9 9 9 9 10 10 10 11 11 12 11 10 9 7 6 5 5 4 4 4 4
14 12 10 10 11 11 11 11 11 10 9 9 9 8 8 8 8 8 8 8 8 7 8 9 11 13 13 14 14 14 14 13 13 13 13 13 13 13 14 16 21 29 36 38 38 37 37 36 34 32 29 26 25 23 22 22 21 21 20 18 17 16 16 16 15 14 12 11 10 9 9 9 9 10 10 10 10 11 11 11 11 11 12 12 11 9 8 6 5 4 3 3 3 2 2 2 2
13 13 12 11 11 11 11 11 10 10 10 9 9 9 8 8 8 8 8 8 8 9 11 13 14 15 15 15 15 14 14 14 14 14 14 14 14 15 18 22 28 35 40 41 40 40 39 39 37 34 31 28 26 25 24 23 22 20 18 16 15 14 13 12 11 10 9 9 9 10 10 11 10 10 11 11 12 12 12 12 12 12 11 9 7 5 4 4 3 3 2 2 2 2 2 2 2
12 12 12 12 11 11 10 10 10 10 10 9 9 9 8 8 8 8 9 10 11 13 15 16 16 17 16 15 15 15 15 15 15 15 15 16 18 21 24 28 34 39 42 43 42 42 43 42 39 36 32 30 28 27 26 24 21 18 16 14 13 12 11 10 10 10 10 10 11 11 11 11 11 11 12 13 13 13 13 13 12 10 8 6 5 4 3 3 3 3 2 2 2 2 2 2 3
11 11 11 11 11 10 10 10 10 10 9 9 9 9 9 9 9 9 10 12 15 17 18 18 17 17 16 16 15 16 17 18 19 20 23 25 27 29 31 35 39 42 44 45 44 44 45 43 40 37 34 32 30 29 26 23 19 15 13 12 11 11 10 10 11 11 12 12 12 12 12 12 12 13 14 15 15 15 14 13 10 7 5 4 3 3 3 3 2 2 2 2 2 2 2 2 2
11 11 11 11 10 11 11 10 12 12 12 11 11 10 9 9 10 11 13 16 18 19 19 19 18 17 17 17 18 20 22 27 30 32 34 36 36 37 38 40 43 45 47 47 46 44 44 43 41 38 36 34 32 29 24 19 16 13 12 11 11 11 11 12 12 12 12 12 12 12 13 13 14 15 16 16 16 15 13 10 7 5 4 3 3 3 3 3 3 2 2 2 2 2 3 2 3
11 11 11 11 12 14 13 14 16 17 17 17 17 15 10 9 12 14 17 20 21 21 21 19 19 18 19 21 26 30 33 37 41 42 43 44 44 43 43 43 44 46 48 48 46 44 43 43 41 39 37 35 31 27 21 17 14 12 12 12 12 12 13 12 13 12 12 12 13 14 14 15 16 16 17 17 16 15 11 7 5 4 4 3 3 3 3 3 3 3 2 2 2 3 3 2 3
12 12 13 15 17 18 19 20 21 22 23 22 24 22 14 11 15 17 20 23 23 22 20 19 21 24 28 34 41 45 46 48 50 50 50 49 48 46 44 44 45 47 48 48 47 45 43 42 40 39 37 34 30 24 19 15 13 12 13 13 14 13 13 13 13 13 13 13 14 15 15 16 16 17 18 18 17 13 8 5 4 4 4 4 4 3 3 3 3 3 3 3 3 3 3 3 3
14 14 16 18 19 20 22 24 25 26 26 25 27 27 20 14 16 20 23 25 25 23 21 21 25 32 39 46 50 52 52 52 53 51 50 48 46 45 44 44 46 48 49 49 48 46 44 42 39 38 36 33 28 22 17 14 13 13 14 14 14 14 13 13 13 13 14 14 15 16 16 17 17 18 19 19 16 11 6 5 5 4 4 4 4 3 3 3 3 3 3 3 3 3 3 3 3
16 16 19 20 22 25 26 29 30 30 30 28 28 30 30 22 17 22 27 29 28 27 25 24 27 33 39 44 46 48 49 49 49 47 45 44 42 42 43 44 47 50 52 51 50 46 43 41 38 35 34 31 26 21 17 14 14 14 15 15 15 14 14 14 14 14 15 16 16 17 17 17 18 19 20 19 14 8 5 5 5 4 4 5 5 4 4 4 4 3 3 3 3 3 4 4 4
19 19 22 26 31 33 35 37 36 36 35 31 31 36 40 34 24 25 29 31 33 31 29 29 30 33 35 38 40 42 45 46 45 45 43 42 41 41 43 46 49 52 53 52 49 45 41 37 34 31 30 27 23 19 16 15 15 15 15 15 15 15 14 15 15 16 17 18 17 17 17 18 19 21 21 18 12 7 6 5 5 5 5 5 5 5 4 4 4 4 4 4 4 4 4 5 5
24 27 30 35 40 41 43 43 42 44 42 36 39 44 46 42 32 29 32 35 37 35 34 34 34 35 35 37 40 42 44 44 44 45 45 43 42 41 42 45 50 53 55 53 47 42 37 32 28 27 26 24 21 18 16 15 15 15 16 16 16 16 16 16 17 18 19 19 18 18 17 18 21 23 23 20 13 7 6 6 5 5 5 6 6 5 5 4 4 4 4 4 4 5 5 6 6
36 39 41 43 46 47 49 49 49 52 47 44 49 51 52 46 32 29 34 39 42 40 39 39 38 39 40 41 45 45 45 45 46 47 47 46 44 43 43 46 50 54 56 53 44 36 31 27 25 23 22 21 18 17 16 15 15 16 16 17 17 17 18 18 19 19 20 20 20 19 19 20 24 26 25 21 14 8 6 6 6 5 5 6 6 6 5 5 4 4 4 4 5 5 6 7 7
49 50 50 51 53 53 55 56 58 60 56 54 57 57 58 51 33 31 39 42 44 43 42 42 41 42 44 47 50 51 52 53 53 52 50 48 47 45 46 49 53 58 59 53 40 31 27 25 23 21 19 18 17 16 16 15 16 16 17 18 19 19 19 20 20 20 21 22 22 21 21 24 27 29 27 21 14 9 7 6 6 6 6 6 6 6 6 5 5 5 5 5 5 7 8 9 10
61 61 62 64 65 65 66 65 67 69 65 62 63 62 59 48 36 37 42 43 45 45 44 44 43 45 48 51 56 60 63 63 60 58 54 51 50 50 52 55 59 60 55 47 35 28 27 25 23 20 18 17 16 16 16 16 17 18 18 19 20 20 20 21 21 22 23 24 24 23 25 28 30 31 29 21 13 9 7 6 6 6 6 6 6 6 6 5 5 5 6 6 7 8 10 11 12
72 74 77 79 79 79 78 76 75 73 69 66 65 63 55 42 36 40 44 45 45 43 44 46 46 48 52 58 68 75 75 72 67 61 56 55 56 58 58 56 54 50 43 36 29 26 25 24 21 19 18 18 18 18 18 19 20 20 21 22 22 23 24 24 24 25 26 26 26 27 29 31 33 33 29 21 14 10 8 7 7 7 7 7 7 6 6 5 6 6 7 8 8 9 11 13 15
84 85 86 84 83 86 84 78 74 70 67 64 61 58 49 40 39 42 44 43 41 42 45 48 49 52 60 71 79 83 81 76 71 64 60 61 61 61 60 52 45 38 33 28 24 23 23 22 21 21 21 22 23 23 24 25 27 28 28 29 29 30 30 30 31 31 30 30 31 32 33 35 36 34 28 19 13 10 8 7 7 7 7 7 7 6 6 6 6 7 8 10 10 11 12 15 17
82 80 78 76 76 81 79 71 66 66 66 61 57 54 47 44 46 44 44 43 43 48 50 51 55 60 70 79 81 82 82 78 72 67 65 63 60 59 58 54 45 36 30 26 23 23 24 24 25 27 29 31 32 33 34 35 35 36 36 36 37 37 37 37 37 36 36 36 36 37 39 39 38 33 25 16 12 9 8 7 7 8 8 8 7 7 7 7 7 8 10 12 12 13 15 17 20
70 69 69 70 71 73 74 71 67 69 71 62 55 54 49 48 47 41 41 46 49 52 52 54 60 66 75 83 82 81 82 78 74 70 66 60 57 55 54 53 50 42 34 30 28 28 29 31 33 35 37 38 39 41 41 42 43 43 43 43 43 43 42 42 42 41 41 41 41 42 43 42 39 32 22 15 12 9 8 8 8 8 9 9 8 8 8 8 9 11 13 14 14 16 18 19 22
70 70 71 74 75 75 79 85 83 81 81 68 56 56 53 47 44 39 40 46 49 48 50 57 63 68 78 85 82 79 78 76 74 71 66 61 57 54 51 49 48 45 40 36 35 35 36 37 39 41 43 45 46 48 49 50 50 49 48 47 47 47 45 44 45 45 45 45 45 45 45 43 38 29 21 15 12 10 9 9 9 10 10 10 10 10 10 11 12 14 15 16 17 19 20 21 23
80 80 80 81 84 86 89 98 99 95 92 79 63 58 51 43 43 42 41 43 46 47 52 63 67 70 80 86 82 79 77 74 71 69 65 62 59 55 51 47 46 46 46 45 45 44 45 47 48 49 52 53 55 57 57 57 54 52 51 49 49 48 46 46 46 46 46 47 48 48 46 40 33 25 18 14 11 10 10 10 10 10 11 11 11 11 12 14 15 16 17 18 20 21 21 23 26
94 93 94 93 96 99 98 101 101 99 100 93 80 65 46 38 42 42 43 46 49 54 61 68 69 71 79 85 82 79 76 73 70 67 65 64 63 60 55 52 51 51 52 54 55 56 57 59 59 61 63 63 64 63 61 58 56 53 52 51 50 50 49 48 47 47 48 49 50 48 42 34 26 20 16 13 11 10 10 10 10 11 12 13 14 13 14 16 16 17 19 21 23 24 25 27 29
100 100 102 99 100 102 101 101 98 99 102 100 96 77 43 34 42 41 46 54 57 62 67 71 75 78 82 86 83 78 74 72 70 67 68 70 70 69 66 65 64 63 63 63 63 66 67 68 68 69 69 68 66 65 61 59 57 55 54 53 52 52 51 50 50 50 51 51 50 46 40 33 25 19 16 13 12 11 11 12 12 13 16 17 17 16 17 18 18 19 21 24 27 28 30 31 33
102 102 102 100 102 102 101 101 97 99 103 100 103 88 46 34 46 47 54 65 66 67 71 78 85 85 87 88 82 75 71 69 69 68 71 73 72 73 73 72 72 72 72 72 71 72 72 73 73 72 70 68 66 64 62 60 58 56 56 55 55 54 54 54 54 54 55 54 51 46 40 34 26 19 17 15 13 12 13 13 15 17 20 22 21 21 22 22 21 22 26 30 33 35 35 35 36
Wind_Speed
25 25 25 26 26 26 26 26 26 26 26 26 26 26 26 26 26 25 25 24 24 23 22 22 22 23 23 23 23 23 23 24 25 25 26 26 26 27 28 28 29 30 31 31 32 33 34 35 36 36 36 36 37 37 36 37 38 38 38 37 35 33 30 26 26 37 48 52 50 46 46 43 42 38 27 23 26 26 27 29 30 32 32 32 31 32 33 32 33 35 35 34 34 34 35 35 34
25 25 25 25 25 25 26 26 27 26 26 27 26 27 26 25 25 24 23 22 22 22 21 22 22 22 22 22 22 22 23 24 24 25 25 25 26 26 27 28 29 29 30 31 32 33 34 35 35 36 36 36 36 37 36 37 37 37 37 35 34 33 31 30 30 37 45 50 52 48 46 44 39 31 27 31 29 27 28 29 31 32 31 30 30 31 31 31 31 33 36 37 37 37 37 37 35
24 25 25 25 25 25 26 26 27 27 27 27 27 26 25 24 24 23 22 21 21 21 21 21 21 21 21 21 22 22 23 23 24 24 24 25 25 25 26 27 27 29 30 31 31 32 33 34 34 34 35 36 35 36 36 36 36 36 36 33 32 31 30 29 30 40 48 50 49 48 46 44 40 34 36 39 33 31 31 33 36 34 30 27 26 28 28 30 31 34 39 40 39 38 37 36 34
24 25 25 25 25 26 26 26 26 26 26 26 26 24 24 23 22 21 21 20 20 20 20 20 20 20 21 21 21 22 22 22 23 23 23 23 24 24 25 26 26 27 29 30 31 32 33 33 33 33 34 35 35 35 35 35 35 35 33 31 30 29 28 25 26 39 49 52 48 46 46 46 45 40 41 41 40 40 37 39 38 32 31 27 25 27 29 31 33 35 39 39 39 38 36 35 35
25 25 25 25 26 26 26 26 26 25 25 25 24 23 22 21 20 20 19 19 19 19 19 19 19 19 20 20 20 21 21 21 21 21 22 22 23 24 24 25 26 26 27 29 29 30 32 32 32 32 33 34 34 35 35 34 34 33 31 30 31 28 26 24 27 36 39 43 41 42 45 42 39 35 38 42 45 46 41 39 36 33 33 29 27 29 30 32 33 35 37 39 39 38 38 38 36
25 25 25 26 26 26 26 26 25 24 24 23 23 22 21 20 19 18 18 18 18 18 18 18 18 19 19 19 19 19 19 20 20 20 21 21 22 23 23 24 24 25 26 27 28 29 30 31 31 31 31 32 32 33 34 34 32 30 29 30 30 28 27 25 28 34 37 39 38 37 36 31 31 33 36 39 41 42 39 36 34 35 34 31 30 31 33 34 34 36 39 41 41 41 41 40 37
25 26 26 26 26 26 25 24 24 24 23 22 21 20 19 18 18 18 17 17 17 17 17 17 17 18 17 17 17 17 17 17 18 18 19 19 20 21 22 22 23 24 25 26 27 28 29 30 30 30 29 29 29 30 32 35 33 30 29 30 30 28 30 29 29 35 40 44 44 40 35 33 39 41 37 37 39 38 36 34 34 35 35 33 33 36 38 37 37 38 40 41 42 43 40 37 33
25 26 26 26 25 25 24 24 23 23 21 21 20 19 18 17 17 16 16 16 15 15 15 15 16 16 15 15 15 14 15 15 16 16 17 18 19 20 21 22 22 23 24 25 26 26 28 28 29 30 29 29 28 27 29 33 34 32 31 30 30 30 31 33 33 36 39 44 48 48 47 47 47 43 38 39 40 38 38 39 41 43 40 37 41 44 44 41 39 37 39 41 41 42 40 37 34
25 25 25 25 24 24 23 23 22 21 20 19 18 18 17 16 16 15 14 14 13 13 13 13 14 14 14 14 14 13 14 14 15 15 16 17 18 20 20 21 22 22 23 24 26 26 27 28 29 30 30 30 29 28 28 30 32 32 32 31 29 29 30 31 35 38 39 43 49 52 52 48 45 41 38 39 41 41 44 47 48 50 47 47 51 50 47 45 41 39 41 43 43 41 40 40 39
25 25 25 24 24 23 23 22 21 20 19 18 17 17 16 15 14 13 13 12 12 12 12 12 13 13 13 12 12 12 13 14 15 15 16 18 19 20 20 21 22 22 23 24 25 26 27 28 28 30 30 31 31 30 30 31 32 31 32 32 31 30 29 30 33 37 39 43 47 49 47 43 42 41 41 42 44 45 47 47 48 51 54 57 55 49 48 46 43 42 43 46 46 44 41 41 43
26 25 24 24 23 23 22 21 20 19 18 17 16 15 15 14 13 13 12 12 12 12 11 12 12 12 12 12 12 13 14 15 15 16 17 19 19 20 21 22 23 23 24 25 25 26 28 28 29 30 30 31 31 32 32 32 32 33 33 32 33 33 32 31 31 34 37 41 44 46 46 45 45 45 45 45 44 44 45 46 50 53 58 60 56 52 50 47 45 44 46 48 49 47 44 45 46
26 25 25 24 23 22 22 21 19 18 17 17 16 15 14 13 13 12 12 12 12 12 11 12 12 12 13 13 13 14 15 16 17 18 19 20 21 22 23 23 24 25 25 26 26 26 27 29 30 30 30 30 31 32 32 32 32 33 34 33 33 34 34 34 33 33 34 37 40 44 47 48 48 47 47 49 47 44 42 42 41 43 50 53 53 52 52 51 50 48 48 49 50 49 49 51 53
26 26 25 25 23 23 22 21 20 18 17 16 15 14 14 14 13 13 12 12 12 12 12 12 13 13 14 14 15 15 16 18 19 20 21 22 23 23 24 25 26 26 27 27 28 27 27 29 30 30 31 31 31 33 33 33 32 32 34 34 33 33 35 36 37 36 36 37 40 43 45 45 45 46 48 49 46 40 37 36 35 34 39 44 45 47 51 54 54 54 52 51 53 55 58 59 59
26 26 26 25 23 23 22 21 20 19 18 16 16 15 15 14 14 13 13 13 13 13 13 13 14 15 16 16 16 17 18 19 20 22 23 24 24 25 26 26 27 28 28 29 29 29 29 29 30 31 31 31 32 32 33 34 33 32 34 34 34 34 35 38 40 41 41 41 42 44 47 46 45 47 46 43 39 38 40 41 40 39 39 40 41 43 47 51 54 56 53 52 55 57 59 58 56
27 27 26 25 24 23 23 22 21 20 18 17 17 16 16 15 15 15 14 14 14 14 14 15 15 16 17 17 18 19 20 20 22 23 24 25 26 26 27 27 28 28 29 29 29 30 30 30 30 31 32 32 32 33 33 34 34 33 34 35 35 35 35 38 41 44 46 46 46 47 50 51 51 50 48 45 46 51 54 52 49 49 47 44 44 45 46 47 50 51 48 47 49 51 51 51 54
27 27 26 25 25 24 23 23 22 21 19 18 18 17 17 17 16 16 16 16 16 15 15 16 16 17 17 18 19 20 21 21 23 24 25 26 27 28 28 28 29 29 30 30 30 30 30 31 30 31 32 33 33 33 34 34 35 35 35 35 36 36 36 37 40 44 47 48 48 50 52 54 54 54 54 55 57 60 61 57 54 53 51 47 47 48 48 48 48 48 45 44 46 48 50 55 62
27 27 27 27 26 26 25 24 23 22 21 20 19 19 19 18 18 17 17 17 17 16 17 17 17 17 18 19 20 21 22 23 24 25 26 27 28 29 30 30 30 30 31 31 31 31 31 32 32 32 32 33 33 34 34 34 35 35 36 36 36 37 36 37 38 41 45 48 49 50 52 55 56 57 58 59 60 61 60 58 55 53 51 49 48 48 47 48 50 51 51 52 54 56 61 66 69
27 28 28 28 27 27 26 25 24 23 22 21 21 21 21 20 19 19 19 18 18 18 18 18 18 19 19 20 21 22 23 24 25 26 27 28 29 30 31 31 31 32 32 32 32 32 33 33 33 33 33 33 33 34 34 34 34 35 35 36 36 37 37 37 37 38 41 46 49 50 50 52 54 57 59 60 61 61 60 60 58 55 53 52 52 51 49 50 51 53 54 55 57 59 61 62 61
28 28 29 29 28 27 26 26 25 24 23 23 23 22 22 21 21 20 20 19 19 19 19 19 20 20 21 22 23 24 25 26 26 27 28 30 31 31 32 32 33 33 33 33 33 33 33 34 34 34 33 33 33 34 34 34 34 34 35 35 36 36 37 37 37 37 39 42 46 49 51 52 54 56 57 59 60 61 60 59 58 56 55 54 53 51 50 51 52 52 52 52 52 52 53 53 53
28 29 29 29 28 27 26 26 25 25 25 25 24 24 23 22 22 21 21 21 21 21 21 21 22 22 23 24 25 25 26 27 28 29 30 31 32 33 33 34 34 34 34 34 35 35 34 34 34 34 34 33 33 33 33 34 33 34 34 35 35 36 36 36 37 37 37 39 41 44 47 50 53 55 56 57 58 59 60 60 59 57 55 53 50 49 51 53 53 53 52 52 51 51 51 51 51
29 29 29 29 29 28 27 27 27 27 27 26 26 25 24 23 23 23 22 22 23 22 22 23 24 24 25 25 26 27 27 28 29 30 31 32 33 34 35 35 36 36 36 36 36 36 36 35 35 35 34 34 33 33 33 33 33 33 34 34 35 35 35 36 36 36 37 37 38 39 41 44 47 50 53 56 59 60 61 61 61 59 57 55 55 56 58 59 59 58 57 55 55 54 54 53 53
30 30 29 29 29 28 28 28 28 28 28 28 27 26 25 25 24 24 23 24 24 24 24 24 25 26 26 26 27 28 29 30 31 32 33 34 34 35 36 36 37 37 36 37 37 37 37 36 36 36 35 34 34 33 33 33 33 34 34 34 35 35 35 35 36 36 37 38 38 38 39 40 41 42 45 48 52 54 56 58 58 58 59 60 61 62 63 62 61 59 58 56 55 54 54 54 54
31 30 30 30 30 30 29 30 30 30 29 29 28 27 27 26 25 25 25 25 25 25 26 26 26 27 27 28 28 29 30 31 32 33 34 35 36 36 37 37 37 37 37 38 38 38 38 37 36 36 36 35 34 34 34 34 34 34 34 35 35 35 35 35 36 36 37 38 38 39 39 40 41 41 41 42 43 45 48 50 51 53 54 55 56 57 57 57 56 56 56 54 53 52 52 53 54
33 31 31 31 31 31 31 31 31 31 31 30 30 29 28 28 27 26 27 27 26 26 27 27 28 28 29 29 30 31 32 33 33 34 35 36 37 38 38 38 38 38 38 39 38 39 39 38 37 36 36 35 35 35 35 35 35 35 35 35 35 36 36 36 36 36 36 37 38 39 39 40 41 42 42 42 42 43 43 44 45 47 47 48 48 48 48 49 50 52 52 52 51 51 51 51 52
34 33 32 32 32 32 32 33 33 33 32 32 31 31 30 30 29 28 30 29 27 28 29 29 30 30 31 31 32 33 34 34 35 36 37 37 38 39 39 39 39 39 39 39 39 40 39 38 37 36 36 36 36 36 36 36 36 36 36 36 36 36 36 36 36 36 36 37 38 38 39 40 41 41 42 43 43 43 43 44 44 44 45 45 45 45 45 46 47 48 49 50 50 50 51 51 52
36 35 34 33 33 34 34 35 35 34 34 34 33 33 32 32 31 30 32 31 30 31 31 31 32 32 33 33 34 35 35 36 36 37 38 39 40 40 40 40 40 40 40 39 40 40 40 38 37 37 37 36 37 37 37 37 37 37 38 38 37 36 36 36 37 37 37 37 38 38 39 40 40 40 42 43 43 44 44 44 44 44 44 44 44 44 44 45 46 47 48 49 50 50 51 52 53
39 38 36 36 36 36 37 37 36 36 36 36 35 35 35 34 33 33 34 33 32 33 33 34 34 35 35 35 36 37 37 38 38 39 40 40 41 41 41 40 40 40 40 40 41 41 40 38 38 37 37 37 38 38 38 39 39 39 39 39 38 38 37 37 37 37 38 38 38 38 39 40 40 40 42 42 43 43 43 43 43 44 44 44 43 43 43 44 44 45 47 48 49 50 51 52 53
41 41 40 39 39 39 39 38 38 39 39 38 38 37 37 36 34 35 37 35 34 35 36 37 37 37 37 37 38 38 38 39 40 40 41 42 42 42 42 42 41 41 40 41 42 41 40 39 39 38 38 39 39 40 40 40 40 40 40 40 39 39 38 38 38 38 38 39 38 39 39 40 40 40 41 42 43 43 43 43 43 44 45 46 45 45 44 44 44 45 46 47 47 48 50 51 53
44 43 43 42 41 41 40 40 41 41 41 40 40 40 39 37 36 38 39 37 36 38 39 39 39 39 39 39 39 39 40 40 41 42 42 43 43 43 43 43 42 41 41 42 42 41 40 40 40 40 40 40 40 40 41 41 41 41 41 41 40 39 39 39 39 39 39 40 40 40 40 41 41 41 42 43 43 44 44 44 45 45 46 47 47 47 46 46 46 46 47 47 47 48 49 50 52
45 46 46 45 44 43 42 42 43 43 43 42 41 43 41 38 39 41 40 39 39 41 41 41 41 41 41 40 40 40 41 42 42 43 43 43 43 44 44 43 42 42 42 43 42 41 41 41 41 41 41 41 41 41 41 42 42 41 41 41 41 40 40 39 39 40 41 41 42 42 42 42 43 43 43 44 45 45 46 46 47 47 47 48 48 48 48 47 47 47 48 49 49 50 50 51 52
47 48 48 47 47 46 45 45 46 46 45 44 43 46 44 40 41 43 41 41 42 43 43 43 43 42 42 41 41 42 42 43 44 44 44 44 44 45 44 43 43 43 43 43 43 42 42 42 42 42 43 43 42 42 42 42 42 41 41 41 41 41 40 40 41 41 42 43 43 44 44 44 45 45 45 45 46 47 47 47 48 48 48 49 49 48 48 47 47 47 48 49 49 50 51 52 53
48 48 49 48 49 49 48 48 48 47 46 46 46 49 48 44 42 42 42 43 44 44 45 45 44 43 43 42 42 43 44 44 45 45 44 45 46 45 44 44 44 44 44 44 43 43 43 43 43 43 43 43 44 43 43 42 42 41 41 41 41 41 41 42 42 43 43 44 44 45 45 45 46 46 46 46 47 47 48 47 47 48 48 48 49 48 48 48 48 49 49 50 50 51 51 52 54
48 49 50 51 51 51 50 49 48 47 47 48 49 51 51 47 43 43 45 46 46 46 46 46 45 44 44 43 44 45 45 46 46 45 46 47 46 45 44 44 45 45 45 44 44 44 44 44 44 44 44 44 44 44 43 42 42 42 42 42 42 42 43 43 44 44 45 45 45 45 46 46 46 46 46 47 47 47 47 48 48 48 49 49 49 49 49 49 50 51 51 52 53 53 54 54 55
47 50 53 53 52 51 50 48 47 48 50 51 52 53 53 49 45 44 46 47 47 48 48 46 45 45 45 45 45 46 46 47 46 46 47 47 46 45 45 45 46 46 45 45 44 44 45 45 45 45 45 45 45 44 44 43 43 43 43 43 44 44 44 45 45 45 45 45 45 45 45 45 46 46 46 46 46 47 47 48 48 48 49 49 50 51 51 52 52 53 53 54 55 56 57 58 59
48 51 52 51 50 50 49 47 47 49 52 53 53 54 53 50 48 47 46 47 48 49 48 46 45 45 46 46 47 47 47 47 46 47 48 47 46 46 46 46 47 46 45 45 45 45 45 45 46 46 46 46 46 45 45 45 45 45 45 45 45 45 45 45 45 45 45 44 44 44 45 45 45 45 46 46 47 47 48 48 49 49 50 51 51 52 53 53 53 54 55 56 57 58 59 60 61
47 47 48 49 48 48 47 47 47 49 52 53 53 54 54 52 50 48 46 46 48 48 46 45 45 45 46 46 47 47 47 46 47 48 47 46 46 46 46 47 47 47 46 46 46 46 46 46 46 46 46 46 46 46 46 47 47 47 47 46 46 45 45 44 44 44 44 44 45 45 45 46 46 46 46 47 48 48 49 49 50 51 52 52 51 52 53 53 54 55 56 57 58 59 60 61 62
44 44 45 46 47 47 45 45 47 49 51 52 52 53 54 54 51 48 46 46 47 46 45 45 45 46 47 47 47 46 46 46 47 47 46 47 47 47 47 48 48 47 47 47 48 48 47 47 46 46 46 46 47 47 48 48 48 48 47 46 45 44 44 44 43 44 44 45 46 47 47 47 47 47 48 49 50 50 51 52 52 52 52 51 51 52 53 54 55 56 57 58 59 60 60 61 62
41 42 43 44 45 45 44 44 46 47 50 51 51 51 53 53 51 49 46 45 45 44 45 45 45 47 47 46 45 45 45 45 45 46 46 47 48 48 48 48 48 48 48 48 49 48 48 47 47 47 47 47 47 48 48 48 48 48 47 45 44 43 44 44 44 45 46 47 47 47 47 48 48 49 50 51 52 53 53 53 53 52 51 51 52 53 54 55 56 57 58 59 59 60 60 61 61
39 39 40 42 42 42 43 43 44 45 48 49 50 51 53 52 50 48 47 45 44 44 44 44 45 46 45 44 44 43 43 43 44 46 47 48 49 49 50 50 49 49 49 49 49 49 49 49 49 48 48 48 48 48 48 48 48 47 46 44 44 44 45 45 46 47 47 48 48 48 48 49 51 52 53 53 54 55 54 53 52 52 52 52 53 54 55 56 57 58 59 59 59 60 60 60 61
38 38 39 41 41 41 43 43 43 44 45 47 48 51 52 51 48 47 46 45 43 44 45 45 45 44 42 41 41 41 42 43 44 46 47 48 49 50 50 51 51 51 50 50 50 50 50 50 50 49 49 49 48 48 49 48 47 46 45 44 45 45 46 47 48 48 49 49 49 49 50 51 53 54 55 55 56 56 55 54 53 53 53 53 54 55 55 56 57 58 59 60 60 60 60 61 61
38 38 40 40 40 41 43 43 43 43 44 45 46 49 51 50 47 44 43 44 43 44 45 44 43 42 41 40 40 41 42 44 45 46 47 48 49 50 51 51 52 51 51 51 51 51 51 51 50 50 49 49 49 49 49 48 46 46 45 45 46 47 48 48 49 49 50 50 51 52 53 54 55 55 56 57 57 56 55 55 55 54 54 54 55 56 56 57 58 59 60 60 60 60 61 61 61
39 39 39 40 40 41 42 43 44 44 44 43 45 49 50 48 45 43 42 43 44 44 44 43 41 40 40 40 40 41 42 43 44 45 46 48 49 50 51 52 52 52 52 52 52 52 52 51 51 51 50 50 50 50 49 48 47 47 47 47 47 48 49 49 50 51 51 52 53 54 55 55 56 57 58 58 57 57 56 56 56 55 55 56 56 57 57 58 59 59 60 60 61 61 61 60 60
39 39 39 40 41 42 42 43 44 45 46 45 44 48 50 47 44 43 42 44 45 44 42 41 40 41 41 40 41 41 42 43 44 45 47 47 49 50 51 51 52 52 52 53 53 53 52 52 52 52 52 51 51 50 50 49 48 48 48 48 49 49 50 50 51 52 53 54 55 56 57 57 58 59 59 59 58 58 58 58 57 57 57 57 58 58 59 59 59 60 60 61 60 60 59 59 58
40 39 40 41 41 43 43 44 45 46 47 47 46 48 50 49 45 45 45 45 46 44 43 43 43 43 42 42 42 43 43 44 45 46 47 47 48 48 49 50 50 51 52 53 53 53 53 53 53 53 53 53 52 51 51 50 50 49 50 50 50 50 51 52 53 54 55 56 57 58 58 59 59 60 60 59 59 59 59 59 59 58 58 58 59 59 60 60 60 60 61 60 60 59 58 57 57
41 41 42 42 42 43 44 45 46 47 48 49 49 48 49 50 47 48 49 47 47 46 45 45 45 45 45 45 46 45 45 46 46 47 47 47 48 48 48 48 49 50 51 52 53 54 54 53 53 54 54 54 53 53 52 52 51 51 51 51 51 52 52 53 55 56 57 58 59 60 60 60 61 61 61 60 60 60 61 60 60 59 59 59 59 60 60 60 60 61 60 60 59 58 57 56 55
42 43 43 43 44 44 45 47 47 49 50 50 50 47 48 50 47 48 51 50 50 49 47 47 48 48 49 48 48 48 48 49 49 48 48 48 48 48 48 49 49 50 51 52 53 54 54 54 54 54 55 55 54 54 53 53 53 53 53 53 53 54 54 55 56 58 59 60 61 61 62 62 62 62 62 62 62 62 62 62 61 61 60 60 60 60 61 61 61 61 60 59 58 56 56 55 55
42 43 44 45 47 47 47 48 48 50 51 50 50 47 49 51 47 47 50 51 52 52 51 51 52 51 51 51 51 51 51 52 52 51 50 49 49 49 49 49 49 50 51 52 53 54 54 55 55 55 55 55 55 55 55 54 54 54 55 55 55 56 56 57 58 60 61 63 63 63 64 63 63 63 63 63 63 63 63 63 63 62 61 61 61 61 61 62 61 61 60 58 57 56 55 54 53
42 44 46 47 49 49 50 50 50 50 51 50 50 49 51 52 48 47 49 50 52 54 53 54 54 54 54 53 53 54 54 54 54 53 52 51 50 49 48 48 48 49 50 52 53 54 55 55 56 56 55 55 55 56 56 56 56 56 57 57 57 57 58 59 61 62 64 65 65 65 64 64 63 63 63 63 64 64 64 64 63 63 62 62 62 62 62 62 62 61 60 58 56 55 53 53 53
44 45 46 47 49 51 52 52 51 51 51 50 50 50 52 52 48 47 48 49 52 54 54 55 54 55 55 55 56 56 56 55 55 54 53 51 50 48 47 46 47 47 49 51 53 54 55 56 56 56 56 56 56 56 56 57 57 57 58 58 59 60 60 61 63 64 65 66 66 66 65 64 64 64 64 64 64 64 65 65 64 63 63 62 62 63 63 62 61 60 59 57 55 54 53 53 53
46 47 47 48 49 51 51 51 51 51 51 51 50 52 53 51 48 47 47 49 51 53 54 55 54 55 56 56 56 56 55 54 53 53 53 52 50 47 45 44 45 47 49 51 53 54 55 55 55 56 56 56 56 57 57 57 58 58 59 60 60 61 62 62 64 65 66 66 66 66 65 65 65 65 64 64 65 65 65 65 65 64 64 63 63 63 63 62 61 60 59 57 56 55 54 53 53
47 47 47 48 48 48 49 49 51 52 53 52 52 54 53 51 49 48 48 50 51 52 53 54 55 56 57 56 55 53 52 52 52 53 53 52 51 49 47 44 44 46 49 51 52 54 54 55 55 55 56 56 57 57 57 58 58 59 59 60 60 61 62 62 63 65 66 66 66 65 66 66 65 65 65 64 64 65 66 66 65 65 64 63 63 62 62 62 61 60 59 58 56 56 55 54 54
46 46 46 47 46 46 48 50 51 52 54 54 54 55 53 50 49 48 49 51 52 53 54 54 56 56 55 54 52 52 51 52 53 53 53 53 54 53 51 49 47 47 49 50 52 53 54 55 56 56 57 57 58 58 57 57 58 58 58 59 60 61 62 63 63 65 65 65 65 65 65 65 65 65 64 64 64 65 66 66 65 65 64 63 62 62 62 62 61 60 59 58 57 57 56 55 54
45 45 45 45 45 47 49 51 52 52 55 56 54 55 53 50 51 49 49 51 52 52 54 55 55 54 53 52 52 52 51 51 51 51 52 54 54 54 53 52 51 50 50 52 53 54 55 56 57 58 58 58 58 57 57 57 58 58 58 59 61 62 63 63 63 64 65 65 65 65 65 65 65 65 64 64 64 65 65 65 65 64 64 63 62 62 62 62 61 60 59 59 58 57 56 56 55
45 45 44 45 47 48 49 51 52 53 56 57 54 54 52 50 52 51 49 52 53 53 54 54 53 52 52 52 51 51 50 49 49 49 51 52 52 53 53 52 53 53 53 54 54 55 56 58 59 59 59 58 57 57 56 58 58 59 59 60 62 64 64 64 64 64 65 66 66 66 66 66 66 65 65 64 64 64 65 65 65 64 63 63 63 63 62 62 62 61 60 59 58 58 57 56 56
44 45 46 47 49 50 50 51 52 53 56 58 55 54 52 50 52 52 51 53 54 54 54 54 53 51 51 50 49 49 49 49 49 50 51 51 51 52 53 53 53 53 54 54 55 56 57 58 59 59 59 58 57 57 57 59 60 60 61 62 63 65 65 66 65 65 65 66 66 67 67 66 66 66 65 64 64 64 65 65 65 64 64 64 64 63 63 63 62 62 61 60 59 58 57 56 56
45 47 48 49 49 51 51 52 53 53 56 57 56 56 51 49 53 53 52 54 54 54 55 53 52 52 50 50 49 49 50 51 52 52 52 51 50 51 52 53 54 54 54 55 55 56 57 58 59 59 59 58 58 58 59 61 62 62 62 63 64 65 66 66 66 66 65 65 66 66 66 66 66 66 66 65 65 65 65 65 65 65 64 64 64 64 64 64 63 62 61 60 60 59 57 56 56
47 48 49 50 50 51 52 54 54 54 55 55 55 57 51 49 55 54 52 55 54 52 54 52 51 51 51 52 51 52 53 54 54 53 51 50 49 50 51 52 53 54 55 55 56 56 57 57 58 58 58 58 59 60 61 62 62 62 62 63 64 64 65 66 66 66 65 65 66 66 66 66 66 66 66 66 65 65 65 65 65 65 65 65 65 65 65 65 64 63 62 61 60 58 57 56 55
48 49 49 50 50 51 52 54 54 53 53 51 52 57 53 49 56 56 52 54 53 51 54 53 51 50 51 52 52 53 54 54 54 51 49 47 48 49 50 51 52 53 54 55 55 55 55 55 56 57 58 59 60 61 62 62 62 62 62 62 63 64 64 65 66 66 66 66 66 67 67 67 66 66 66 66 65 65 65 65 65 65 65 65 65 66 66 66 65 64 62 61 60 58 57 56 55
Wind_Direction
246 247 249 252 254 256 257 258 259 259 260 260 260 259 258 258 259 258 258 259 260 262 263 265 266 267 269 271 272 272 273 274 275 275 276 276 276 277 278 279 279 279 279 279 279 279 278 278 278 278 278 278 278 277 277 278 277 277 277 278 279 279 278 267 257 263 266 264 264 265 268 273 277 273 262 278 284 266 264 270 281 290 286 281 280 280 280 282 280 275 273 274 279 283 284 283 280
247 249 251 253 255 256 258 258 259 259 259 259 258 258 257 257 257 257 258 259 261 263 264 265 265 266 268 269 269 270 271 272 273 274 275 276 276 277 278 279 279 279 279 280 280 280 279 279 279 280 279 279 278 278 278 277 277 278 278 279 279 280 277 272 266 262 264 262 262 265 270 276 281 273 264 286 282 260 267 272 281 286 279 278 277 278 282 283 279 277 277 277 279 283 285 285 283
248 250 252 254 256 256 256 256 257 258 258 258 257 256 256 255 255 257 258 260 260 261 261 262 263 264 265 266 268 269 270 271 272 273 275 276 277 278 278 278 278 278 278 279 279 280 279 279 279 280 280 279 279 279 279 277 278 277 278 279 278 278 274 277 273 264 265 261 260 264 268 270 270 267 271 282 273 262 271 275 283 280 272 274 273 279 284 283 280 278 278 277 279 282 284 286 286
250 252 254 255 255 255 255 255 255 256 256 255 255 255 254 254 254 256 257 258 257 258 259 260 262 263 265 266 267 269 270 271 273 274 275 276 277 278 278 278 278 277 277 278 279 279 280 280 280 280 280 280 279 279 279 278 278 277 278 278 275 273 271 274 247 233 247 255 256 258 261 263 262 263 268 273 267 265 272 277 280 271 264 265 271 283 288 289 286 280 277 276 279 282 282 284 286
251 252 253 254 254 254 254 254 253 253 253 253 253 253 252 253 253 254 254 255 256 257 258 260 262 263 264 265 267 268 270 271 273 275 277 278 279 279 280 280 280 279 279 279 279 280 281 282 282 281 281 281 281 280 280 279 278 279 279 276 272 270 268 267 241 221 230 242 246 248 249 252 255 261 271 273 268 267 272 275 269 259 256 258 271 285 290 292 289 282 279 278 279 281 282 282 280
251 252 252 253 254 254 253 252 251 250 250 251 251 250 250 250 251 251 252 253 255 256 258 259 261 262 262 264 266 267 270 272 274 277 278 280 280 281 282 282 283 283 282 282 281 281 281 282 282 281 281 281 281 281 281 279 279 279 278 275 272 269 264 260 249 241 241 244 249 247 238 241 258 273 281 279 274 272 270 265 255 250 249 255 273 287 292 293 289 286 284 281 279 278 278 274 269
250 251 251 252 253 252 251 249 248 248 247 247 248 248 248 248 249 250 251 253 254 256 257 259 260 261 262 263 266 268 271 274 277 279 281 282 283 283 284 284 284 285 284 284 283 282 281 281 281 280 279 279 279 280 281 281 280 280 278 276 273 264 259 256 250 248 249 251 254 252 246 258 278 286 284 277 274 270 265 261 256 253 250 260 277 287 292 291 290 290 283 279 276 273 271 264 260
250 251 252 252 251 249 247 246 244 245 244 244 246 246 246 247 248 249 251 252 254 255 257 258 259 262 263 266 269 272 275 278 281 284 286 287 288 288 288 288 287 287 286 285 284 283 282 281 281 279 278 278 277 277 278 281 282 283 281 279 275 265 258 255 252 250 250 251 251 253 260 272 281 282 278 272 267 263 265 268 269 266 260 269 282 288 290 288 287 284 276 274 271 266 263 258 259
252 252 252 251 249 246 244 242 240 241 241 241 243 243 244 245 247 249 250 251 252 254 255 258 260 264 267 271 276 279 282 286 289 292 294 295 295 294 294 293 292 290 288 287 285 284 282 281 280 279 279 278 277 277 275 276 280 282 284 283 277 268 260 255 251 250 250 252 253 256 263 273 277 274 272 268 263 263 268 270 269 266 263 274 284 286 286 285 282 277 273 271 267 261 258 257 262
253 252 251 248 245 242 240 238 237 237 238 238 239 240 242 243 245 246 248 249 251 254 256 260 264 269 273 277 283 286 290 294 297 300 301 302 303 302 301 300 298 295 291 288 286 284 283 281 280 279 280 280 279 279 278 278 279 281 283 284 280 270 263 257 253 251 250 252 256 258 262 268 269 269 270 268 263 262 264 263 264 267 269 277 283 283 283 282 279 276 275 271 264 258 257 260 266
253 251 247 244 240 239 237 237 236 235 235 235 236 238 240 242 243 244 246 249 251 255 259 265 269 273 279 285 290 293 297 301 303 305 306 307 308 308 307 306 304 301 296 292 288 285 284 282 279 278 278 279 279 279 280 280 281 281 281 281 280 275 270 263 257 253 252 253 257 260 263 265 263 265 268 265 259 258 262 266 269 274 276 279 283 283 283 282 279 276 276 271 261 256 258 264 270
251 248 243 240 236 236 236 235 234 233 233 233 235 236 239 240 242 244 246 249 253 259 264 268 273 277 283 290 293 296 300 304 306 308 310 310 312 312 312 311 310 307 303 298 293 288 284 282 280 279 278 277 277 277 277 276 277 279 279 279 279 277 272 266 261 257 255 256 257 262 263 262 261 261 262 260 258 260 265 268 269 274 277 279 282 284 284 283 279 277 275 271 262 261 266 270 274
248 244 239 235 234 234 233 232 232 232 232 232 234 235 237 239 240 243 247 252 256 261 266 270 275 280 286 292 293 297 301 305 308 310 311 311 312 313 314 315 314 314 310 306 300 294 288 284 282 281 279 278 276 276 276 275 274 275 276 278 278 276 272 265 261 259 259 257 255 257 254 254 258 258 257 257 256 254 255 254 252 263 274 278 280 283 284 283 281 280 277 272 269 269 271 273 276
243 240 236 233 232 232 231 231 232 232 232 233 234 234 236 238 241 243 248 253 258 262 266 271 276 281 286 290 292 296 300 304 306 307 308 308 310 311 312 314 314 315 314 310 305 300 294 290 287 284 282 280 278 277 277 277 275 274 274 276 276 276 273 267 262 260 259 257 254 252 250 253 260 262 259 254 250 252 258 260 260 267 277 280 281 283 286 285 282 281 279 274 271 269 270 272 276
239 237 234 233 231 231 231 231 233 233 233 234 235 236 238 240 242 245 249 255 258 260 265 270 275 280 284 288 291 294 298 300 302 303 304 305 306 307 308 309 311 312 313 311 307 301 296 293 290 288 286 284 282 280 279 278 277 276 274 274 275 275 274 271 266 263 260 258 256 254 255 257 259 261 258 256 260 265 270 273 274 277 282 284 282 284 286 284 278 274 272 268 266 267 268 273 279
235 233 231 231 232 232 232 233 235 235 235 236 237 239 241 242 244 247 250 254 257 260 265 269 273 277 281 286 290 293 296 298 299 301 301 302 302 303 304 305 306 308 310 310 308 302 297 294 292 291 289 288 286 284 282 281 280 279 277 276 276 276 276 274 272 268 265 263 261 259 258 259 259 260 260 263 268 272 274 276 279 282 285 286 285 285 284 280 275 270 266 265 267 270 273 279 283
232 230 229 230 232 233 234 236 237 237 237 238 239 241 243 244 245 248 251 254 257 260 265 269 273 276 281 285 289 292 295 296 298 299 300 300 300 301 301 301 302 304 306 308 308 305 299 295 294 292 291 289 288 287 285 284 282 281 280 279 278 278 277 276 275 273 270 267 266 264 261 260 261 262 263 266 270 274 276 279 283 285 285 287 289 289 284 280 277 273 271 273 276 277 279 283 284
230 229 229 231 232 233 235 237 238 239 239 239 240 242 244 244 245 249 252 254 258 262 265 270 274 278 282 286 288 291 293 295 297 298 298 299 299 299 299 299 300 301 303 305 306 305 301 296 294 294 292 291 290 288 286 285 284 282 281 279 277 277 277 277 277 275 273 270 268 267 265 264 263 264 266 267 270 274 278 281 284 285 285 286 289 288 282 278 277 277 278 280 282 282 282 284 284
231 230 231 232 233 235 237 239 241 241 241 241 243 243 244 245 247 251 253 256 259 263 267 271 275 279 283 285 287 290 292 294 295 296 297 298 299 299 298 298 298 299 300 302 303 304 302 297 294 293 293 292 290 288 287 286 284 283 281 279 277 276 276 276 276 276 275 273 271 269 268 268 268 268 269 270 272 274 278 282 285 285 285 287 288 286 281 279 280 282 284 285 286 286 286 286 285
232 232 234 235 236 238 240 243 244 244 244 244 245 245 247 248 250 253 255 258 261 265 269 272 275 278 281 283 286 288 291 293 294 296 298 299 299 299 298 298 297 297 298 299 301 302 301 298 294 291 291 290 289 288 287 286 285 284 282 281 280 278 277 275 275 275 275 274 273 272 271 271 272 274 274 274 275 276 278 281 284 285 286 286 285 284 285 285 286 286 287 289 289 289 288 287 287
233 234 237 238 240 242 244 245 246 246 247 247 247 248 249 250 252 254 257 260 262 265 269 271 274 277 279 283 285 288 290 292 295 296 298 299 299 299 299 298 297 296 296 297 299 300 300 298 294 291 290 289 288 288 287 287 286 285 284 282 281 280 280 278 277 276 275 274 274 274 274 274 275 275 276 275 275 276 278 279 281 282 283 283 283 284 287 288 288 288 288 288 288 288 288 288 287
234 236 238 240 242 243 245 246 247 248 248 249 249 249 250 251 253 255 258 260 263 265 268 271 275 277 280 283 285 288 290 293 295 297 298 298 299 299 298 297 296 295 295 295 297 299 299 297 294 290 289 289 288 288 288 288 286 285 284 283 282 282 281 281 281 280 279 278 278 278 278 278 279 279 278 278 278 279 279 280 281 281 281 281 282 284 286 288 288 288 287 286 286 285 285 285 285
236 236 238 240 242 244 245 246 247 248 249 250 250 251 251 252 254 257 259 261 264 268 270 272 275 278 281 284 286 289 292 294 296 297 298 299 299 299 298 297 295 293 293 294 296 298 298 296 292 289 288 287 287 288 287 286 286 285 284 283 283 283 283 282 282 281 281 281 281 281 281 281 281 282 282 281 281 282 283 284 283 283 283 283 283 285 286 287 287 287 287 286 285 284 283 282 281
237 238 238 240 242 244 245 246 247 249 250 251 251 252 252 253 255 258 260 262 266 269 271 274 277 280 283 285 288 291 293 295 296 297 298 298 299 299 298 296 294 292 292 293 296 297 296 294 290 287 286 286 286 286 285 284 284 283 283 282 282 282 282 281 280 280 280 280 279 279 280 280 280 281 282 283 283 283 283 284 285 285 285 286 286 286 286 286 286 286 287 287 286 284 282 280 279
240 240 240 241 242 244 245 247 248 249 250 251 252 253 253 255 256 260 262 263 267 271 272 276 278 281 284 287 290 292 293 294 296 297 298 298 299 299 298 295 292 291 291 293 295 296 295 292 288 286 285 285 285 285 284 284 283 283 282 281 281 280 280 280 280 280 279 279 279 279 279 280 280 282 283 283 284 285 286 286 286 286 286 287 287 287 287 286 286 285 285 285 285 284 283 281 281
241 241 241 242 244 245 247 248 249 250 251 252 253 254 255 257 258 262 264 266 269 272 275 277 279 282 285 288 290 292 293 294 295 296 297 297 298 299 297 293 291 290 292 293 295 295 293 290 287 285 284 284 284 284 284 284 284 283 282 281 280 280 279 280 280 280 280 280 281 281 281 281 282 283 283 284 285 286 287 288 288 288 288 288 288 287 287 286 286 285 285 284 284 284 284 283 283
243 243 243 244 245 247 248 250 251 252 252 253 254 256 257 259 262 265 266 268 272 274 276 278 280 283 286 288 290 292 293 294 295 295 296 297 298 298 295 292 290 290 292 293 294 293 291 288 286 285 284 284 284 284 284 284 283 282 282 281 281 280 280 280 280 281 281 282 282 282 282 283 283 283 283 283 284 285 286 287 287 288 288 288 288 288 287 286 285 285 284 284 285 285 285 285 284
247 246 246 246 247 248 250 252 253 254 254 255 257 257 259 262 265 268 268 270 275 277 278 280 282 284 286 289 290 291 292 293 294 294 296 297 297 296 293 291 289 290 292 293 293 292 289 286 285 284 284 284 284 284 284 284 283 282 281 281 280 280 280 281 281 281 281 281 281 281 281 282 282 282 282 283 283 284 284 284 285 286 287 288 289 289 289 288 287 286 285 284 285 285 285 284 284
250 249 249 248 249 250 252 254 255 256 256 257 259 259 261 265 268 270 271 273 277 278 279 281 283 285 287 289 290 291 291 292 292 293 295 296 296 295 292 289 289 290 291 292 291 289 287 285 284 284 284 284 284 283 283 283 282 282 281 281 280 280 280 281 281 281 281 281 280 280 280 279 280 280 280 281 282 282 283 283 284 284 285 286 287 288 289 289 289 289 288 288 287 286 285 284 284
252 252 252 252 252 252 254 256 256 257 258 260 262 262 263 268 270 270 273 276 278 279 281 282 284 286 288 289 290 290 290 291 291 293 294 294 294 292 290 289 289 290 291 291 289 287 285 284 284 284 283 283 283 283 282 282 282 281 281 280 280 280 280 281 281 281 281 281 281 280 280 280 281 281 281 281 282 282 283 284 284 284 285 285 286 287 288 289 289 290 290 290 290 290 289 288 287
253 254 254 255 256 256 257 258 258 259 260 262 264 263 264 268 271 272 275 278 279 280 282 283 285 287 288 288 289 289 289 290 291 292 293 292 291 290 289 288 288 289 290 290 288 286 284 283 283 283 283 283 283 282 282 281 281 281 280 280 280 280 281 281 281 281 281 281 281 282 282 283 283 283 283 284 284 284 284 285 286 287 287 288 288 289 290 291 291 291 290 291 291 291 291 291 290
254 255 256 257 258 258 258 259 260 262 264 265 266 265 265 268 271 274 276 278 279 281 283 284 286 287 287 288 288 288 288 289 290 291 291 290 289 288 287 287 288 289 290 289 287 285 284 283 283 283 283 282 282 282 281 281 280 280 279 279 280 281 281 281 281 281 281 282 282 282 283 283 283 283 284 284 284 285 286 287 287 288 289 289 290 291 292 292 292 292 292 292 292 292 292 291 291
256 256 257 256 256 258 259 261 263 265 266 266 266 266 266 268 272 275 276 277 279 281 283 285 286 286 287 287 287 287 288 289 290 289 288 288 288 287 287 287 287 289 289 287 286 285 285 284 283 283 282 282 281 281 281 280 279 279 278 279 280 281 281 281 281 281 281 281 282 282 282 283 283 283 284 284 285 286 286 287 288 288 289 290 291 292 293 293 293 293 294 294 294 295 295 294 293
256 255 256 256 257 260 262 264 265 265 265 265 266 266 268 270 273 275 275 277 279 281 282 284 285 285 285 286 286 287 287 288 288 286 286 287 287 286 286 286 287 288 288 286 286 285 284 283 282 282 281 281 281 280 280 279 278 278 278 279 280 280 280 280 280 281 281 281 281 281 282 282 282 283 284 284 285 285 286 287 288 289 290 291 292 293 293 293 293 294 295 296 296 296 297 297 296
256 256 257 259 261 262 263 264 263 263 264 265 266 267 269 270 272 274 276 278 279 280 282 283 283 284 284 286 286 286 286 286 285 284 285 286 285 285 285 286 287 287 287 286 285 284 283 281 281 280 280 280 280 279 279 278 278 278 279 280 280 280 280 280 280 280 280 280 280 280 281 281 282 283 284 284 285 285 286 287 289 290 290 291 291 292 292 293 293 294 295 296 296 296 296 296 296
261 261 261 261 262 262 263 263 262 263 264 266 268 269 269 270 272 274 276 277 279 280 282 282 283 283 284 285 285 285 285 284 282 283 285 285 284 284 284 286 287 287 286 285 285 283 281 280 279 279 279 278 278 278 277 277 278 279 280 280 279 279 279 279 279 279 279 280 281 281 282 282 283 283 284 284 285 286 287 288 289 289 289 290 290 291 291 292 293 294 295 295 295 296 296 296 296
263 262 262 262 262 262 263 264 265 265 266 267 268 269 270 271 273 274 276 277 279 281 281 282 283 284 283 284 284 283 283 282 283 284 284 283 283 284 285 286 286 286 285 284 283 282 281 280 279 278 276 276 275 275 276 277 279 279 279 279 279 279 279 279 279 280 281 281 282 283 283 283 283 284 284 285 285 286 287 288 288 288 289 289 290 290 291 292 293 293 294 294 295 296 297 297 297
263 263 263 263 263 263 264 265 265 266 267 268 269 269 270 272 273 275 276 277 279 280 281 282 283 283 283 283 282 281 281 282 283 283 283 283 284 285 285 285 285 284 283 283 283 282 281 279 277 276 275 274 274 275 276 277 278 278 278 279 279 279 279 280 281 282 282 282 282 282 282 283 284 284 285 286 286 287 287 287 287 287 288 288 289 289 290 291 292 293 294 295 296 297 297 298 298
264 264 264 264 264 264 264 265 266 266 268 269 270 270 270 271 273 274 276 278 280 281 281 282 281 281 281 281 280 280 281 282 282 282 283 284 285 284 284 284 284 283 283 283 282 281 279 278 277 276 275 275 274 275 276 276 276 276 277 277 278 278 280 281 281 282 281 281 280 281 282 283 283 284 285 286 286 286 286 286 286 286 287 287 288 289 290 292 292 293 294 295 296 297 298 299 299
265 265 265 265 265 265 265 266 267 268 269 270 270 270 270 270 272 274 277 280 282 282 282 282 280 279 278 278 279 280 280 281 282 283 283 284 284 284 284 283 283 283 283 282 281 279 278 277 277 276 275 275 275 275 275 275 275 275 276 276 277 279 280 280 281 280 279 279 280 281 282 282 283 284 285 286 286 286 285 285 285 286 287 287 288 289 290 291 292 293 294 295 296 297 298 299 300
266 266 265 265 266 267 268 269 270 271 272 272 273 273 271 270 272 274 278 281 282 282 282 281 280 278 278 278 279 280 280 281 282 282 282 282 282 282 283 283 283 282 282 281 280 279 278 277 277 276 275 274 274 274 274 274 274 274 275 276 278 279 279 280 279 278 278 278 280 281 281 282 283 284 285 285 285 284 284 284 285 286 287 287 288 289 290 291 292 292 294 295 296 296 297 299 300
266 265 266 267 268 269 271 272 274 274 274 275 277 277 273 272 275 277 279 281 281 281 281 280 279 279 280 280 281 281 281 280 280 280 280 280 280 281 281 282 282 282 281 280 279 278 277 276 275 274 274 274 274 274 273 273 273 274 275 276 278 278 278 278 277 277 277 279 280 281 282 283 284 285 285 285 284 283 283 283 285 285 286 287 288 289 289 290 291 292 293 294 295 296 297 298 299
266 266 268 269 270 271 273 275 276 276 277 277 278 279 277 275 276 279 280 280 280 280 280 279 279 279 280 280 281 281 280 280 280 280 279 280 280 281 281 281 281 281 280 279 277 276 275 274 274 274 274 273 273 273 272 272 273 274 275 276 277 278 277 277 277 277 278 279 280 281 282 283 284 285 285 285 284 283 282 283 284 285 286 287 288 288 289 290 291 291 292 293 294 295 296 297 298
267 268 269 271 273 274 276 276 277 277 278 278 278 281 282 279 278 279 279 278 280 281 281 281 280 280 280 280 280 280 281 281 281 281 281 282 281 281 281 281 280 278 277 277 276 274 274 273 273 273 273 273 272 272 271 272 273 274 275 276 277 277 277 277 277 278 279 280 280 281 283 284 285 285 285 284 283 282 282 283 284 284 285 286 287 287 288 289 289 290 291 292 293 294 295 296 297
270 270 271 274 275 276 277 277 278 278 278 279 279 283 286 283 280 282 282 282 284 285 285 284 283 283 282 281 282 282 283 283 283 283 283 283 283 283 282 280 279 277 276 275 274 273 273 272 272 272 272 272 271 271 271 272 272 274 275 276 277 277 277 277 278 278 279 279 280 281 282 283 284 285 285 284 283 282 282 283 283 284 284 285 286 286 287 287 288 289 289 290 291 292 293 294 295
271 272 273 275 275 276 277 277 278 279 278 279 281 285 287 284 280 282 285 288 290 289 288 287 286 285 285 284 285 285 285 285 285 285 285 285 284 284 282 280 278 276 274 273 272 272 272 272 271 271 271 271 271 271 271 271 273 274 275 276 276 276 276 277 278 278 279 279 280 281 282 283 284 284 284 284 283 282 282 282 283 283 284 284 285 285 285 286 286 287 287 288 290 291 292 293 294
273 274 275 275 276 276 277 278 279 280 279 281 283 286 286 283 281 282 286 289 291 291 291 290 289 289 289 289 289 289 288 288 288 288 288 287 286 284 282 280 278 275 272 271 270 270 269 269 269 269 269 270 270 270 271 272 273 274 275 275 275 276 276 277 277 278 278 279 279 280 281 283 284 284 284 284 283 282 282 282 282 282 283 283 284 284 284 284 284 285 286 287 288 290 291 292 293
274 275 275 276 277 278 278 279 280 281 282 282 283 283 282 283 283 285 287 290 290 291 291 291 291 292 292 292 292 292 291 291 291 291 290 289 287 285 282 279 277 274 271 269 268 267 267 266 267 267 268 269 269 270 271 272 273 273 274 275 275 276 276 277 277 277 278 279 279 281 282 283 284 284 284 284 283 282 282 282 281 282 282 282 282 282 282 283 283 284 285 286 287 288 289 290 291
274 275 276 277 278 279 279 280 281 282 283 282 281 281 281 282 285 287 289 290 290 290 290 290 291 292 292 293 293 294 294 294 294 294 293 291 289 286 283 279 276 272 269 267 265 265 264 265 266 267 268 269 269 270 271 272 273 274 274 275 276 276 277 277 277 277 278 279 280 281 282 283 283 283 283 283 282 282 281 281 281 280 280 281 281 281 281 281 282 283 284 285 286 287 288 288 289
274 275 277 277 279 280 280 282 282 282 282 282 281 281 282 285 287 288 289 288 287 287 288 290 291 291 292 293 295 296 297 296 295 295 294 292 290 288 285 279 274 270 267 265 263 262 263 264 265 266 268 269 270 271 271 272 273 274 275 276 276 277 277 277 277 277 278 279 280 281 282 282 283 283 282 282 281 281 280 280 279 280 280 280 280 280 280 281 281 282 283 284 285 286 286 287 287
275 276 277 278 280 281 281 282 282 283 283 282 282 282 284 288 289 289 288 286 285 286 287 289 289 289 291 294 296 297 297 296 295 294 293 291 290 287 283 278 273 269 266 264 263 262 263 264 265 266 267 269 270 271 272 273 274 275 276 277 277 277 277 277 277 278 278 279 280 281 281 281 281 281 281 281 280 279 279 279 279 279 279 279 279 279 279 280 280 281 282 283 284 284 285 285 286
277 278 279 280 281 281 282 282 282 283 282 281 282 283 286 288 288 288 287 285 286 287 287 287 287 288 291 294 294 295 294 294 293 291 290 288 287 285 282 278 274 270 266 264 263 264 264 265 266 267 268 270 271 272 274 275 276 277 278 278 279 278 278 278 278 278 279 279 280 280 280 281 281 280 280 279 279 278 278 278 278 279 278 278 278 278 279 279 280 280 281 282 283 283 284 284 284
279 279 280 282 282 281 281 281 281 281 280 281 283 285 287 289 287 285 285 285 285 285 285 285 287 290 292 293 293 292 292 291 290 288 287 286 285 284 282 279 276 272 268 266 265 266 267 268 269 270 271 272 273 275 276 277 278 278 279 279 279 278 278 279 279 279 279 280 281 281 281 281 281 280 279 279 278 278 278 278 278 278 278 278 278 278 278 278 279 279 280 281 281 282 282 283 283
280 281 282 281 280 279 279 280 281 281 281 283 285 287 288 289 288 287 287 286 286 286 286 287 289 291 292 293 292 291 289 288 286 284 283 284 283 283 282 279 276 273 270 269 268 268 269 270 271 272 273 275 277 279 280 280 279 279 279 279 279 279 279 280 280 280 281 282 282 282 282 282 281 281 280 280 279 279 278 278 278 278 278 278 278 278 278 278 278 278 279 279 280 280 281 281 281
281 281 280 279 279 279 280 280 281 282 283 285 287 288 288 288 287 287 287 287 287 288 288 290 291 292 292 292 290 288 287 285 283 281 281 281 281 280 280 278 277 275 273 273 272 272 272 273 274 276 277 279 280 281 280 278 278 278 278 279 279 280 280 281 281 281 281 282 283 283 283 282 282 281 281 280 280 279 279 278 278 278 279 278 278 278 277 277 277 278 278 279 279 279 280 280 280
280 279 279 279 280 281 281 281 282 283 284 285 287 286 286 287 286 286 287 286 287 289 290 292 292 291 291 289 287 285 283 282 281 280 280 280 279 278 277 277 277 276 275 275 275 275 276 277 279 281 281 282 281 280 278 277 278 279 279 279 280 280 281 281 282 282 282 282 282 282 282 281 281 281 280 280 280 279 279 278 278 278 278 278 278 277 277 277 277 277 277 278 278 279 279 279 279
277 278 278 280 281 281 281 281 282 283 283 284 286 285 285 286 285 286 287 287 288 290 290 291 291 291 290 288 285 284 283 282 282 282 282 281 280 277 276 276 277 277 277 278 279 280 281 282 283 283 282 281 280 279 279 279 280 280 280 280 280 281 281 282 282 282 282 282 282 282 281 281 280 280 280 279 279 279 278 278 278 278 278 277 277 277 276 276 277 277 277 277 278 278 278 278 278
277 277 278 280 281 281 282 282 282 283 282 284 284 282 284 286 285 286 288 289 290 290 290 290 290 288 286 284 283 283 282 283 284 285 284 282 280 278 277 278 278 280 281 282 283 283 283 283 282 281 281 280 280 280 280 280 280 280 280 280 280 281 281 281 281 282 282 282 282 281 281 281 280 280 280 280 279 279 278 278 277 277 277 277 276 276 276 276 277 277 278 278 278 277 277 277 277